Location: Cambridge (historical)
(38.6883°N, 119.0140°W)
Time: 13:45:23
(UTC+00:00)

SJ-7 - Pass Details

Date: 29 October 2020
Orbit: 555 x 603 km, 97.7° (Epoch: 01 December)

Event Time Altitude Azimuth Distance (km) Brightness Sun altitude
Rises 13:46:59 0° 10° (N) 2,758 7.9 -7.1°
Reaches altitude 10° 13:49:08 10° 9° (N) 1,853 7.0 -6.7°
Maximum altitude 13:53:07 77° 285° (WNW) 576 4.3 -6.0°
Drops below altitude 10° 13:57:04 10° 198° (SSW) 1,829 6.9 -5.2°
Sets 13:59:11 0° 197° (SSW) 2,719 7.8 -4.8°
